Hatteras, NC

10:41 PM EDT on September 19, 2017 (GMT -0400)
Mitchell

Weather History for KHSE - January, 2015

Change the Weather History Date:

Saturday, January 3, 2015

  Actual Average Record
Temperature  
Mean Temperature 59 °F 46 °F  
Max Temperature 68 °F 53 °F 71 °F (1966)
Min Temperature 50 °F 39 °F 16 °F (1918)
Degree Days  
Heating Degree Days 6 19  
Month to date heating degree days 40 57  
Since 1 July heating degree days 903 864  
Cooling Degree Days 0 0  
Month to date cooling degree days 0 0  
Year to date cooling degree days 0 0  
Growing Degree Days 9 (Base 50)    
Moisture  
Dew Point 62 °F    
Average Humidity 90    
Maximum Humidity 100    
Minimum Humidity 80    
Precipitation  
Precipitation 0.83 in 0.16 in 1.98 in (1992)
Month to date precipitation 0.83 0.47  
Year to date precipitation 0.83 0.47  
Snow  
Snow 0.00 in - - ()
Month to date snowfall 0.0  
Since 1 July snowfall 0.0  
Snow Depth 0.00 in    
Sea Level Pressure  
Sea Level Pressure 30.28 in    
Wind  
Wind Speed 11 mph (South)    
Max Wind Speed 26 mph    
Max Gust Speed 35 mph    
Visibility 6 miles    
Events Rain    
T = Trace of Precipitation, MM = Missing Value Source: NWS Daily Summary

Daily Weather History Graph

Daily Weather History Graph

Search for Another Location

Airport or City:

Trip Planner

Search our weather history database for the weather conditions in past years. The results will help you decide how hot, cold, wet, or windy it might be!

Date:

Astronomy

Jan. 03, 2015 Rise Set
Actual Time 7:11 AM EST 5:02 PM EST
Civil Twilight 6:43 AM EST 5:30 PM EST
Nautical Twilight 6:11 AM EST 6:02 PM EST
Astronomical Twilight 5:40 AM EST 6:33 PM EST
Moon 4:06 PM EST (1/3) 5:33 AM EST (1/3)
Length of Visible Light 10h 47m
Length of Day
9h 51m
Waxing Gibbous, 98% of the Moon is Illuminated
Jan 3
Waxing Gibbous
Jan 4
Full
Jan 13
Last Quarter
Jan 20
New
Jan 26
First Quarter

Hourly Weather History & Observations

Time (EST) Temp. Dew Point Humidity Pressure Visibility Wind Dir Wind Speed Gust Speed Precip Events Conditions
12:51 AM 50.0 °F 44.1 °F 80% 30.39 in 10.0 mi NE 4.6 mph - N/A   Partly Cloudy
1:51 AM 50.0 °F 45.0 °F 83% 30.39 in 10.0 mi NNE 6.9 mph - N/A   Scattered Clouds
2:51 AM 50.0 °F 45.0 °F 83% 30.39 in 10.0 mi NNE 6.9 mph - N/A   Scattered Clouds
3:51 AM 50.0 °F 45.0 °F 83% 30.40 in 10.0 mi NE 6.9 mph 17.3 mph 0.00 in Rain Light Rain
4:51 AM 50.0 °F 46.0 °F 86% 30.38 in 10.0 mi NNE 5.8 mph - 0.00 in   Mostly Cloudy
5:51 AM 50.0 °F 48.9 °F 96% 30.37 in 10.0 mi NE 5.8 mph - 0.01 in Rain Light Rain
6:51 AM 55.0 °F 53.1 °F 93% 30.38 in 10.0 mi NE 6.9 mph - 0.00 in   Overcast
7:51 AM 57.9 °F 55.0 °F 90% 30.37 in 10.0 mi ENE 6.9 mph - N/A   Overcast
8:18 AM 59.0 °F 55.9 °F 90% 30.38 in 10.0 mi East 8.1 mph - N/A   Overcast
8:51 AM 61.0 °F 57.9 °F 90% 30.39 in 10.0 mi ESE 13.8 mph - N/A   Overcast
9:03 AM 62.1 °F 57.9 °F 86% 30.39 in 10.0 mi ESE 11.5 mph - N/A   Overcast
9:49 AM 62.6 °F 59.0 °F 88% 30.39 in 10.0 mi ESE 11.5 mph - N/A   Overcast
9:51 AM 63.0 °F 59.0 °F 87% 30.39 in 10.0 mi ESE 11.5 mph - N/A   Overcast
10:51 AM 62.1 °F 60.1 °F 93% 30.36 in 9.0 mi East 10.4 mph - 0.00 in Rain Light Rain
11:51 AM 63.0 °F 62.1 °F 97% 30.32 in 9.0 mi ESE 16.1 mph - 0.00 in   Overcast
12:00 PM 63.0 °F 62.1 °F 97% 30.32 in 9.0 mi ESE 16.1 mph - N/A   Overcast
12:17 PM 63.0 °F 62.1 °F 97% 30.31 in 10.0 mi ESE 13.8 mph - N/A   Overcast
12:38 PM 64.0 °F 63.0 °F 96% 30.29 in 4.0 mi SE 17.3 mph - N/A   Overcast
12:49 PM 64.4 °F 62.6 °F 94% 30.29 in 6.0 mi SE 15.0 mph - N/A   Overcast
12:51 PM 64.0 °F 63.0 °F 96% 30.29 in 6.0 mi SE 16.1 mph - N/A   Overcast
1:16 PM 64.0 °F 63.0 °F 96% 30.27 in 7.0 mi SE 15.0 mph - N/A   Overcast
1:51 PM 66.0 °F 64.0 °F 93% 30.25 in 10.0 mi ESE 16.1 mph - N/A   Mostly Cloudy
2:00 PM 66.9 °F 64.9 °F 93% 30.25 in 9.0 mi ESE 12.7 mph - N/A   Mostly Cloudy
2:14 PM 66.9 °F 64.9 °F 93% 30.24 in 8.0 mi SE 13.8 mph - N/A   Overcast
2:25 PM 66.9 °F 64.9 °F 93% 30.24 in 8.0 mi SE 11.5 mph - N/A   Overcast
2:51 PM 68.0 °F 64.9 °F 90% 30.23 in 7.0 mi SSE 13.8 mph - N/A   Mostly Cloudy
3:51 PM 66.9 °F 64.9 °F 93% 30.22 in 7.0 mi South 16.1 mph - N/A   Overcast
4:51 PM 66.9 °F 66.0 °F 97% 30.24 in 4.0 mi South 11.5 mph - N/A   Overcast
5:43 PM 66.0 °F 66.0 °F 100% 30.25 in 5.0 mi South 10.4 mph - N/A   Overcast
5:51 PM 66.0 °F 66.0 °F 100% 30.25 in 1.8 mi South 13.8 mph - 0.05 in Rain Heavy Rain
5:59 PM 66.9 °F 66.9 °F 100% 30.25 in 3.0 mi SSW 12.7 mph - 0.06 in Rain Light Rain
6:08 PM 64.9 °F 64.9 °F 100% 30.25 in 5.0 mi SSW 9.2 mph - 0.06 in   Overcast
6:26 PM 64.9 °F 64.9 °F 100% 30.26 in 3.0 mi SW 5.8 mph - 0.06 in   Overcast
6:46 PM 64.4 °F 64.4 °F 100% 30.25 in 2.5 mi WSW 5.8 mph - 0.06 in   Overcast
6:51 PM 64.0 °F 64.0 °F 100% 30.25 in 3.0 mi SW 5.8 mph - 0.06 in   Overcast
6:58 PM 64.0 °F 64.0 °F 100% 30.25 in 2.5 mi SW 5.8 mph - N/A   Overcast
7:03 PM 64.9 °F 64.9 °F 100% 30.25 in 3.0 mi SW 8.1 mph - 0.00 in Rain Light Rain
7:12 PM 66.0 °F 66.0 °F 100% 30.25 in 3.0 mi WSW 10.4 mph - 0.01 in Rain Rain
7:20 PM 66.0 °F 66.0 °F 100% 30.25 in 2.0 mi WSW 9.2 mph - 0.06 in Rain Rain
7:22 PM 66.0 °F 66.0 °F 100% 30.25 in 1.8 mi WSW 8.1 mph - 0.06 in Rain Rain
7:24 PM 66.0 °F 66.0 °F 100% 30.25 in 2.0 mi WSW 8.1 mph - 0.07 in Rain Rain
7:41 PM 64.9 °F 64.9 °F 100% 30.25 in 3.0 mi SSW 10.4 mph - 0.10 in Rain Light Rain
7:51 PM 64.9 °F 64.9 °F 100% 30.25 in 4.0 mi SW 5.8 mph - 0.10 in Rain Light Rain
7:58 PM 64.9 °F 64.9 °F 100% 30.25 in 1.8 mi SW 8.1 mph - 0.03 in Rain Heavy Rain
8:13 PM 66.0 °F 66.0 °F 100% 30.24 in 2.0 mi SSW 6.9 mph - 0.08 in Rain Rain
8:22 PM 64.9 °F 64.9 °F 100% 30.24 in 1.5 mi SSW 6.9 mph - 0.14 in Rain Light Rain
8:30 PM 64.9 °F 64.9 °F 100% 30.23 in 1.0 mi SSW 9.2 mph - 0.21 in Rain Heavy Rain
8:39 PM 66.9 °F 66.9 °F 100% 30.24 in 1.5 mi SW 9.2 mph 23.0 mph 0.38 in Rain Light Rain
8:43 PM 66.0 °F 66.0 °F 100% 30.23 in 3.0 mi SW 11.5 mph 18.4 mph 0.38 in Rain Light Rain
8:47 PM 66.2 °F 66.2 °F 100% 30.23 in 2.5 mi SW 10.4 mph - 0.38 in Rain Light Rain
8:51 PM 66.0 °F 66.0 °F 100% 30.23 in 2.5 mi SW 11.5 mph 19.6 mph 0.39 in Rain Light Rain
8:58 PM 66.0 °F 66.0 °F 100% 30.22 in 1.2 mi SW 11.5 mph 19.6 mph 0.02 in Rain Heavy Rain
9:09 PM 66.9 °F 66.9 °F 100% 30.22 in 2.0 mi SSW 19.6 mph 27.6 mph 0.13 in Rain Light Rain
9:13 PM 66.9 °F 66.9 °F 100% 30.23 in 3.0 mi SSW 12.7 mph 27.6 mph 0.13 in Rain Light Rain
9:22 PM 66.0 °F 66.0 °F 100% 30.22 in 3.0 mi SSW 21.9 mph 29.9 mph 0.15 in Rain Rain
9:40 PM 66.9 °F 66.9 °F 100% 30.22 in 2.0 mi SSW 21.9 mph 35.7 mph 0.20 in Rain Light Rain
9:51 PM 66.9 °F 66.9 °F 100% 30.21 in 3.0 mi SSW 17.3 mph 26.5 mph 0.22 in Rain Light Rain
10:51 PM 66.9 °F 64.9 °F 93% 30.22 in 5.0 mi SSW 16.1 mph 25.3 mph 0.00 in   Scattered Clouds
11:51 PM 68.0 °F 64.9 °F 90% 30.22 in 5.0 mi SSW 17.3 mph 25.3 mph N/A   Scattered Clouds